User: anonymous   Login
Location: Libas
(9.8833°N, 125.9833°E)
Time: 14:38:42
(UTC+00:00)
Language:

Cosmos 1356 Rocket - Orbit

View from above orbital plane
View from above orbital plane
View from above satellite
View from above satellite

Ground track
Ground track

The orbit data is extracted from the following two-line orbital elements,

1 13154U 82039B   21019.90628124  .00000132  00000-0  90211-5 0  9995
2 13154  81.1828 187.7874 0039609 337.7137  22.2359 14.98831579100070
Epoch (UTC): 19 January 2021 21:45:02
Eccentricity: 0.0039609
inclination: 81.1828°
perigee height: 543 km
apogee height: 598 km
right ascension of ascending node: 187.7874°
argument of perigee: 337.7137°
revolutions per day: 14.98831579
mean anomaly at epoch: 22.2359°
orbit number at epoch: 10007

The dashed part of the orbit path shows where the satellite is in the earth's shadow,  

DLR